TimeEDT,TemperatureF,Dew PointF,Humidity,Sea Level PressureIn,VisibilityMPH,Wind Direction,Wind SpeedMPH,Gust SpeedMPH,PrecipitationIn,Events,Conditions,WindDirDegrees,DateUTC
12:15 AM,62.6,62.6,100,30.05,7.0,SW,5.8,-,N/A,,Clear,230,2013-04-02 04:15:00
12:35 AM,62.6,62.6,100,30.04,4.0,WSW,5.8,-,N/A,,Clear,240,2013-04-02 04:35:00
12:55 AM,62.6,62.6,100,30.04,4.0,WSW,4.6,-,N/A,,Clear,250,2013-04-02 04:55:00
1:15 AM,62.6,62.6,100,30.04,5.0,WSW,4.6,-,N/A,,Clear,250,2013-04-02 05:15:00
1:35 AM,62.6,62.6,100,30.04,5.0,SW,4.6,-,N/A,,Clear,230,2013-04-02 05:35:00
1:55 AM,60.8,60.8,100,30.03,3.0,WSW,3.5,-,N/A,,Clear,250,2013-04-02 05:55:00
2:15 AM,60.8,60.8,100,30.04,1.2,Calm,Calm,-,N/A,,Mist,0,2013-04-02 06:15:00
2:35 AM,60.8,60.8,100,30.03,1.0,Calm,Calm,-,N/A,,Mist,0,2013-04-02 06:35:00
2:55 AM,59.0,59.0,100,30.03,0.2,Calm,Calm,-,N/A,Fog,Fog,0,2013-04-02 06:55:00
3:15 AM,59.0,59.0,100,30.04,0.2,SSE,3.5,-,N/A,Fog,Fog,160,2013-04-02 07:15:00
3:35 AM,59.0,59.0,100,30.04,0.2,Calm,Calm,-,N/A,Fog,Fog,0,2013-04-02 07:35:00
3:55 AM,57.2,57.2,100,30.04,0.2,Calm,Calm,-,N/A,Fog,Fog,0,2013-04-02 07:55:00
4:15 AM,57.2,57.2,100,30.04,0.2,Calm,Calm,-,N/A,Fog,Fog,0,2013-04-02 08:15:00
4:35 AM,57.2,57.2,100,30.05,0.2,Calm,Calm,-,N/A,Fog,Fog,0,2013-04-02 08:35:00
4:55 AM,55.4,55.4,100,30.05,0.2,Calm,Calm,-,N/A,Fog,Fog,0,2013-04-02 08:55:00
5:15 AM,55.4,55.4,100,30.05,0.2,Calm,Calm,-,N/A,Fog,Fog,0,2013-04-02 09:15:00
5:35 AM,55.4,55.4,100,30.05,0.2,Calm,Calm,-,N/A,Fog,Fog,0,2013-04-02 09:35:00
5:55 AM,53.6,53.6,100,30.05,0.2,Calm,Calm,-,N/A,Fog,Fog,0,2013-04-02 09:55:00
6:15 AM,53.6,53.6,100,30.05,0.2,Calm,Calm,-,N/A,Fog,Fog,0,2013-04-02 10:15:00
6:35 AM,53.6,53.6,100,30.05,0.2,Calm,Calm,-,N/A,Fog,Fog,0,2013-04-02 10:35:00
6:55 AM,53.6,53.6,100,30.07,0.2,Calm,Calm,-,N/A,Fog,Fog,0,2013-04-02 10:55:00
7:15 AM,53.6,53.6,100,30.07,0.2,Calm,Calm,-,N/A,Fog,Fog,0,2013-04-02 11:15:00
7:35 AM,51.8,51.8,100,30.08,0.2,Calm,Calm,-,N/A,Fog,Fog,0,2013-04-02 11:35:00
7:55 AM,53.6,53.6,100,30.09,0.2,Calm,Calm,-,N/A,Fog,Fog,0,2013-04-02 11:55:00
8:15 AM,53.6,53.6,100,30.10,0.5,Calm,Calm,-,N/A,Fog,Fog,0,2013-04-02 12:15:00
8:35 AM,57.2,57.2,100,30.10,5.0,Calm,Calm,-,N/A,,Scattered Clouds,0,2013-04-02 12:35:00
8:55 AM,59.0,59.0,100,30.11,10.0,Calm,Calm,-,N/A,,Clear,0,2013-04-02 12:55:00
9:15 AM,60.8,60.8,100,30.11,10.0,Calm,Calm,-,N/A,,Clear,0,2013-04-02 13:15:00
9:35 AM,62.6,62.6,100,30.11,10.0,North,4.6,-,N/A,,Clear,360,2013-04-02 13:35:00
9:55 AM,68.0,64.4,88,30.12,10.0,NNE,4.6,-,N/A,,Clear,20,2013-04-02 13:55:00
10:35 AM,71.6,64.4,78,30.12,10.0,ENE,4.6,-,N/A,,Clear,60,2013-04-02 14:35:00
10:55 AM,73.4,64.4,73,30.12,10.0,ENE,3.5,-,N/A,,Clear,60,2013-04-02 14:55:00
11:15 AM,75.2,55.4,50,30.12,10.0,ESE,5.8,-,N/A,,Clear,110,2013-04-02 15:15:00
11:35 AM,78.8,53.6,42,30.12,10.0,East,8.1,-,N/A,,Clear,80,2013-04-02 15:35:00
11:55 AM,78.8,53.6,42,30.11,10.0,ENE,5.8,-,N/A,,Clear,70,2013-04-02 15:55:00
12:15 PM,78.8,51.8,39,30.11,10.0,East,4.6,-,N/A,,Clear,90,2013-04-02 16:15:00
12:35 PM,80.6,51.8,37,30.10,10.0,East,4.6,-,N/A,,Clear,80,2013-04-02 16:35:00
12:55 PM,82.4,50.0,32,30.10,10.0,ENE,9.2,-,N/A,,Scattered Clouds,60,2013-04-02 16:55:00
1:15 PM,82.4,50.0,32,30.10,10.0,Calm,Calm,-,N/A,,Scattered Clouds,0,2013-04-02 17:15:00
1:35 PM,82.4,50.0,32,30.08,10.0,East,6.9,-,N/A,,Scattered Clouds,100,2013-04-02 17:35:00
1:55 PM,82.4,48.2,30,30.08,10.0,ESE,5.8,-,N/A,,Scattered Clouds,120,2013-04-02 17:55:00
2:15 PM,82.4,50.0,32,30.06,10.0,North,6.9,-,N/A,,Scattered Clouds,360,2013-04-02 18:15:00
2:35 PM,84.2,48.2,29,30.06,10.0,South,3.5,-,N/A,,Clear,190,2013-04-02 18:35:00
2:55 PM,84.2,48.2,29,30.05,10.0,East,4.6,-,N/A,,Scattered Clouds,90,2013-04-02 18:55:00
3:15 PM,84.2,46.4,27,30.04,10.0,ESE,4.6,-,N/A,,Scattered Clouds,120,2013-04-02 19:15:00
3:35 PM,86.0,46.4,25,30.03,10.0,SE,5.8,-,N/A,,Scattered Clouds,140,2013-04-02 19:35:00
3:55 PM,86.0,46.4,25,30.03,10.0,ENE,5.8,-,N/A,,Mostly Cloudy,70,2013-04-02 19:55:00
4:15 PM,82.4,46.4,28,30.03,10.0,NNE,3.5,-,N/A,,Overcast,30,2013-04-02 20:15:00
4:35 PM,87.8,44.6,22,30.03,10.0,ESE,4.6,-,N/A,,Mostly Cloudy,120,2013-04-02 20:35:00
4:55 PM,86.0,46.4,25,30.02,10.0,ENE,5.8,-,N/A,,Scattered Clouds,70,2013-04-02 20:55:00
5:15 PM,82.4,46.4,28,30.03,10.0,SE,3.5,-,N/A,,Scattered Clouds,130,2013-04-02 21:15:00
5:35 PM,80.6,46.4,30,30.03,10.0,Calm,Calm,-,N/A,,Clear,0,2013-04-02 21:35:00
5:55 PM,80.6,46.4,30,30.03,10.0,East,3.5,-,N/A,,Clear,100,2013-04-02 21:55:00
6:15 PM,80.6,46.4,30,30.03,10.0,Calm,Calm,-,N/A,,Clear,0,2013-04-02 22:15:00
6:35 PM,80.6,48.2,32,30.03,10.0,Calm,Calm,-,N/A,,Clear,0,2013-04-02 22:35:00
6:55 PM,82.4,46.4,28,30.03,10.0,East,3.5,-,N/A,,Mostly Cloudy,100,2013-04-02 22:55:00
7:15 PM,80.6,48.2,32,30.03,10.0,Calm,Calm,-,N/A,,Mostly Cloudy,0,2013-04-02 23:15:00
7:35 PM,78.8,50.0,36,30.03,10.0,East,3.5,-,N/A,,Mostly Cloudy,100,2013-04-02 23:35:00
7:55 PM,77.0,51.8,41,30.04,10.0,WNW,4.6,-,N/A,,Mostly Cloudy,290,2013-04-02 23:55:00
8:15 PM,75.2,51.8,44,30.05,10.0,WNW,9.2,-,N/A,,Scattered Clouds,290,2013-04-03 00:15:00
8:35 PM,73.4,51.8,47,30.07,10.0,NW,4.6,-,N/A,,Clear,320,2013-04-03 00:35:00
8:55 PM,71.6,51.8,50,30.07,10.0,Calm,Calm,-,N/A,,Clear,0,2013-04-03 00:55:00
9:15 PM,73.4,51.8,47,30.07,10.0,ESE,3.5,-,N/A,,Clear,110,2013-04-03 01:15:00
9:35 PM,71.6,51.8,50,30.08,10.0,East,8.1,-,N/A,,Clear,90,2013-04-03 01:35:00
9:55 PM,69.8,51.8,53,30.10,10.0,ESE,8.1,-,N/A,,Clear,110,2013-04-03 01:55:00
10:15 PM,69.8,53.6,56,30.10,10.0,ESE,6.9,-,N/A,,Clear,120,2013-04-03 02:15:00
10:35 PM,69.8,53.6,56,30.09,10.0,ESE,6.9,-,N/A,,Clear,120,2013-04-03 02:35:00
10:55 PM,68.0,53.6,60,30.10,10.0,ESE,5.8,-,N/A,,Clear,110,2013-04-03 02:55:00
11:15 PM,68.0,53.6,60,30.10,10.0,East,3.5,-,N/A,,Clear,100,2013-04-03 03:15:00
11:35 PM,68.0,53.6,60,30.12,10.0,Calm,Calm,-,N/A,,Clear,0,2013-04-03 03:35:00
11:55 PM,64.4,55.4,73,30.11,10.0,Calm,Calm,-,N/A,,Clear,0,2013-04-03 03:55:00